EW8530 Weather Reports


time (UTC)temp
C
wind
direction
speed
KPH
gust
KPH
rain 1hr
cm
rain 24hr
cm
rain mn
cm
humidity
%
barometer
mb
20260505090138 20 5 14.5 29.0 0.00 2.49 0.51 79 1019.1
20260505085641 19 356 9.7 29.0 0.00 2.49 0.51 80 1019.1
20260505085128 19 47 9.7 20.9 0.00 2.49 0.51 82 1019.1
20260505084626 19 42 8.0 25.7 0.00 2.49 0.51 83 1019.3
20260505084124 18 353 11.3 24.1 0.00 2.49 0.51 83 1019.5
20260505083731 18 349 6.4 16.1 0.00 2.49 0.51 84 1019.7
20260505083134 18 336 8.0 24.1 0.00 2.49 0.51 85 1019.9
20260505082635 18 352 12.9 24.1 0.00 2.49 0.51 84 1019.9
20260505082140 18 70 12.9 22.5 0.00 2.49 0.51 85 1019.8
20260505081640 17 339 14.5 24.1 0.00 2.49 0.51 86 1019.8
20260505081140 17 12 14.5 24.1 0.00 2.49 0.51 87 1019.9
20260505080625 17 1 8.0 19.3 0.00 2.49 0.51 88 1020.1
20260505080140 17 353 9.7 19.3 0.00 2.49 0.51 89 1020.2
20260505075639 17 80 8.0 17.7 0.00 2.49 0.51 90 1020.2
20260505075153 17 74 8.0 24.1 0.00 2.49 0.51 89 1020.4
20260505074629 17 14 12.9 25.7 0.00 2.49 0.51 89 1020.4
20260505074135 17 356 12.9 24.1 0.00 2.49 0.51 90 1020.4
20260505073640 17 43 14.5 24.1 0.00 2.49 0.51 91 1020.4
20260505073132 17 72 8.0 17.7 0.00 2.49 0.51 90 1020.4
20260505072701 17 355 8.0 17.7 0.00 2.49 0.51 91 1020.4
20260505072127 16 359 6.4 17.7 0.00 2.49 0.51 92 1020.4
20260505071632 16 93 6.4 16.1 0.00 2.49 0.51 93 1020.4
20260505071140 16 64 4.8 14.5 0.00 2.49 0.51 94 1020.5
20260505070624 15 73 6.4 14.5 0.00 2.49 0.51 95 1020.5
20260505070133 15 355 4.8 12.9 0.00 2.49 0.51 95 1020.6
20260505065702 15 1 3.2 12.9 0.00 2.49 0.51 96 1020.4
20260505065131 15 354 6.4 19.3 0.00 2.49 0.51 97 1020.5
20260505064640 15 64 6.4 19.3 0.00 2.49 0.51 97 1020.7
20260505064128 15 355 6.4 17.7 0.00 2.49 0.51 98 1020.7
20260505063637 14 352 4.8 14.5 0.00 2.49 0.51 98 1020.7
20260505063125 13 89 3.2 9.7 0.00 2.49 0.51 98 1020.7
20260505062656 13 64 3.2 12.9 0.00 2.49 0.51 98 1020.7
20260505062123 13 58 6.4 14.5 0.00 2.49 0.51 98 1020.7
20260505061631 13 6 4.8 19.3 0.00 2.49 0.51 98 1020.7
20260505061141 13 69 8.0 19.3 0.00 2.49 0.51 98 1020.9
20260505060652 13 324 6.4 16.1 0.00 2.49 0.51 98 1020.9
20260505060140 13 46 6.4 22.5 0.00 2.49 0.51 98 1020.8
20260505055628 13 64 9.7 22.5 0.00 2.49 0.51 98 1020.8
20260505055138 13 355 8.0 25.7 0.00 2.49 0.51 98 1020.9
20260505054648 13 58 8.0 22.5 0.00 2.49 0.51 99 1021.1
20260505054135 13 349 11.3 22.5 0.00 2.49 0.51 99 1020.9
20260505053626 13 8 9.7 20.9 0.00 2.49 0.51 99 1021.0
20260505053134 13 360 9.7 22.5 0.00 2.49 0.51 99 1021.0
20260505052638 12 97 9.7 22.5 0.10 2.49 0.51 99 1020.8
20260505052141 12 28 6.4 14.5 0.20 2.49 0.51 99 1021.0
20260505051633 12 60 4.8 14.5 0.30 2.49 0.51 99 1021.0
20260505051129 12 106 6.4 16.1 0.30 2.49 0.51 99 1021.0
20260505050637 12 43 8.0 17.7 0.30 2.49 0.51 99 1021.0
20260505050124 12 54 8.0 19.3 0.30 2.49 0.51 99 1021.0
20260505041639 12 46 9.7 17.7 0.00 2.21 0.43 99 1021.8
20260505041126 12 5 4.8 9.7 0.00 2.21 0.43 99 1021.4
20260505040629 12 50 3.2 8.0 0.00 2.21 0.43 99 1021.0
20260505040136 12 117 0.0 8.0 0.00 2.21 0.43 99 1021.1
20260505035625 12 118 1.6 6.4 0.10 2.21 0.43 99 1021.1
20260505035131 12 358 1.6 11.3 0.30 2.21 0.43 99 1021.1
20260505034636 12 340 1.6 11.3 0.51 2.21 0.43 99 1021.3
20260505034154 12 343 4.8 9.7 0.71 2.21 0.43 99 1021.3
20260505033640 12 348 3.2 9.7 1.50 2.21 0.43 99 1021.5
20260505033124 12 353 3.2 9.7 2.21 2.21 0.43 99 1021.5
20260505032627 12 5 3.2 9.7 2.21 2.21 0.43 99 1021.7
20260505032133 12 58 3.2 6.4 2.21 2.21 0.43 99 1021.7
20260505031626 12 298 1.6 6.4 2.21 2.21 0.43 99 1021.7
20260505031134 12 348 1.6 6.4 2.21 2.21 0.43 99 1021.8
20260505030642 12 284 1.6 6.4 2.21 2.21 0.43 99 1021.9
20260505030130 12 279 1.6 11.3 2.21 2.21 0.43 99 1022.1
20260505025638 12 266 6.4 16.1 2.11 2.11 0.43 99 1022.0
20260505025140 12 271 8.0 24.1 1.91 1.91 0.38 99 1022.2
20260505024627 12 297 11.3 20.9 1.70 1.70 0.33 99 1022.3
20260505024140 12 276 9.7 19.3 1.50 1.50 0.30 99 1022.4
20260505023626 12 343 9.7 17.7 0.71 0.71 0.15 99 1022.6
20260505023134 12 290 8.0 19.3 0.00 0.00 0.00 99 1022.6
20260505022645 12 277 9.7 17.7 0.00 0.00 0.00 99 1022.7
20260505022149 12 124 0.0 1.6 0.00 0.00 0.00 99 1020.9
20260505021626 12 124 0.0 0.0 0.00 0.00 0.00 99 1020.7
20260505021149 12 124 0.0 0.0 0.00 0.00 0.00 99 1020.6
20260505020624 11 124 0.0 0.0 0.00 0.00 0.00 99 1020.6
20260505020137 11 125 0.0 0.0 0.00 0.00 0.00 99 1020.6
20260505015641 11 124 0.0 0.0 0.00 0.00 0.00 99 1020.6
20260505015126 11 124 0.0 0.0 0.00 0.00 0.00 99 1020.8
20260505014659 11 124 0.0 0.0 0.00 0.00 0.00 99 1020.8
20260505014136 12 124 0.0 0.0 0.00 0.00 0.00 99 1020.8
20260505013656 11 125 0.0 0.0 0.00 0.00 0.00 99 1020.8
20260505013137 11 125 0.0 0.0 0.00 0.00 0.00 99 1020.7
20260505012631 12 124 0.0 0.0 0.00 0.00 0.00 99 1020.9
20260505012124 12 124 0.0 0.0 0.00 0.00 0.00 99 1020.8
20260505011626 12 124 0.0 0.0 0.00 0.00 0.00 99 1020.8
20260505010628 12 124 0.0 0.0 0.00 0.00 0.00 98 1020.9
20260505010138 12 124 0.0 0.0 0.00 0.00 0.00 98 1020.9
20260505005623 12 124 0.0 0.0 0.00 0.00 0.00 98 1021.0
20260505005129 12 124 0.0 0.0 0.00 0.00 0.00 98 1021.1
20260505004634 12 125 0.0 0.0 0.00 0.00 0.00 98 1021.1
20260505004202 12 124 0.0 0.0 0.00 0.00 0.00 98 1021.1
20260505003658 12 124 0.0 0.0 0.00 0.00 0.00 98 1021.1
20260505003142 12 124 0.0 0.0 0.00 0.00 0.00 98 1021.1
20260505002641 12 124 0.0 0.0 0.00 0.00 0.00 98 1021.3
20260505002149 12 124 0.0 0.0 0.00 0.00 0.00 98 1021.3
20260505001626 12 124 0.0 0.0 0.00 0.00 0.00 98 1021.4
20260505001142 12 124 0.0 0.0 0.00 0.00 0.00 98 1021.5
20260505000624 12 124 0.0 0.0 0.00 0.00 0.00 98 1021.6
20260505000129 12 124 0.0 0.0 0.00 0.00 0.00 97 1021.5
20260504235631 12 124 0.0 1.6 0.00 0.00 0.00 97 1021.4
20260504235143 12 124 0.0 1.6 0.00 0.00 0.00 97 1021.4
20260504234634 12 124 0.0 1.6 0.00 0.00 0.00 97 1021.5
20260504234137 13 124 0.0 3.2 0.00 0.00 0.00 97 1021.5
20260504233652 13 124 0.0 3.2 0.00 0.00 0.00 97 1021.6
20260504233137 13 178 0.0 3.2 0.00 0.00 0.00 97 1021.6
20260504232637 12 179 0.0 1.6 0.00 0.00 0.00 97 1021.8
20260504232123 12 179 0.0 1.6 0.00 0.00 0.00 97 1021.9
20260504231630 13 179 0.0 1.6 0.00 0.00 0.00 97 1022.0
20260504231136 13 179 0.0 4.8 0.00 0.00 0.00 97 1022.1
20260504230638 13 180 0.0 4.8 0.00 0.00 0.00 97 1022.2
20260504230142 12 182 0.0 3.2 0.00 0.00 0.00 97 1022.3
20260504225648 12 180 0.0 1.6 0.00 0.00 0.00 97 1022.2
20260504225133 12 180 0.0 1.6 0.00 0.00 0.00 97 1022.2
20260504224639 12 116 0.0 0.0 0.00 0.00 0.00 97 1022.1
20260504224141 12 116 0.0 0.0 0.00 0.00 0.00 97 1022.0
20260504223626 12 116 0.0 0.0 0.00 0.00 0.00 97 1022.0
20260504223152 12 116 0.0 0.0 0.00 0.00 0.00 97 1022.0
20260504222639 13 116 0.0 0.0 0.00 0.00 0.00 96 1022.1
20260504222124 13 116 0.0 0.0 0.00 0.00 0.00 96 1022.1
20260504221659 13 116 0.0 1.6 0.00 0.00 0.00 96 1022.3
20260504221138 13 116 0.0 1.6 0.00 0.00 0.00 96 1022.2
20260504220641 13 116 0.0 0.0 0.00 0.00 0.00 96 1022.2
20260504220137 13 116 0.0 1.6 0.00 0.00 0.00 96 1022.4
20260504215658 13 116 0.0 0.0 0.00 0.00 0.00 96 1022.5
20260504215124 13 116 0.0 0.0 0.00 0.00 0.00 95 1022.5
20260504214648 13 116 0.0 0.0 0.00 0.00 0.00 95 1022.6
20260504214137 13 116 0.0 0.0 0.00 0.00 0.00 95 1022.7
20260504213629 13 116 0.0 0.0 0.00 0.00 0.00 95 1022.8
20260504213203 13 116 0.0 0.0 0.00 0.00 0.00 95 1022.8
20260504212650 13 116 0.0 0.0 0.00 0.00 0.00 94 1022.8
20260504212157 14 116 0.0 4.8 0.00 0.00 0.00 94 1022.8
20260504211625 14 116 0.0 4.8 0.00 0.00 0.00 94 1022.8
20260504211128 14 116 0.0 1.6 0.00 0.00 0.00 93 1022.8
20260504210638 14 116 0.0 4.8 0.00 0.00 0.00 93 1022.8
20260504210126 14 116 0.0 4.8 0.00 0.00 0.00 93 1022.9
20260504205655 15 116 1.6 3.2 0.00 0.00 0.00 93 1022.9
20260504205124 15 116 0.0 3.2 0.00 0.00 0.00 92 1023.0
20260504204631 15 116 0.0 3.2 0.00 0.00 0.00 92 1023.0
20260504204140 15 116 0.0 3.2 0.00 0.00 0.00 91 1023.0
20260504203649 15 88 0.0 6.4 0.00 0.00 0.00 91 1023.0
20260504203138 15 88 0.0 6.4 0.00 0.00 0.00 91 1023.0
20260504202625 15 341 1.6 11.3 0.00 0.00 0.00 91 1023.1
20260504202134 15 44 3.2 11.3 0.00 0.00 0.00 91 1023.2
20260504201643 15 84 1.6 9.7 0.00 0.00 0.00 91 1023.2
20260504201131 15 44 3.2 8.0 0.00 0.00 0.00 91 1023.2
20260504200640 15 50 1.6 11.3 0.00 0.00 0.00 90 1023.2
20260504200150 15 38 6.4 11.3 0.00 0.00 0.00 90 1023.2
20260504195635 15 64 3.2 9.7 0.00 0.00 0.00 90 1023.2
20260504195146 16 4 3.2 9.7 0.00 0.00 0.00 90 1023.2
20260504194630 16 73 4.8 12.9 0.00 0.00 0.00 90 1023.2
20260504194140 16 358 4.8 12.9 0.00 0.00 0.00 90 1023.2
20260504193628 16 339 4.8 12.9 0.00 0.00 0.00 89 1023.2
20260504193137 15 19 6.4 12.9 0.00 0.00 0.00 89 1023.1
20260504192626 15 57 4.8 12.9 0.00 0.00 0.00 89 1023.0
20260504192131 15 106 3.2 12.9 0.00 0.00 0.00 89 1023.1
20260504191133 15 121 1.6 6.4 0.00 0.00 0.00 88 1023.1
20260504190643 15 85 1.6 6.4 0.00 0.00 0.00 88 1023.0
20260504190227 15 65 1.6 6.4 0.00 0.00 0.00 87 1023.0
20260504185631 15 96 1.6 6.4 0.00 0.00 0.00 86 1023.0
20260504185137 16 114 0.0 4.8 0.00 0.00 0.00 86 1023.1
20260504184646 16 122 0.0 6.4 0.00 0.00 0.00 85 1023.0
20260504184132 16 97 0.0 6.4 0.00 0.00 0.00 84 1023.1
20260504183640 16 15 1.6 8.0 0.00 0.00 0.00 84 1023.2
20260504183128 16 108 3.2 11.3 0.00 0.00 0.00 83 1023.2
20260504182636 17 95 4.8 11.3 0.00 0.00 0.00 83 1023.2
20260504182123 17 42 4.8 12.9 0.00 0.00 0.00 83 1023.2
20260504181639 17 137 3.2 12.9 0.00 0.00 0.00 82 1023.1
20260504181129 17 35 6.4 14.5 0.00 0.00 0.00 82 1023.1
20260504180659 17 350 6.4 14.5 0.00 0.00 0.00 81 1023.1
20260504180126 17 97 3.2 12.9 0.00 0.00 0.00 81 1023.1
20260504175635 17 284 3.2 12.9 0.00 0.00 0.00 81 1023.0
20260504175125 17 4 3.2 11.3 0.00 0.00 0.00 81 1023.0
20260504174633 17 74 3.2 11.3 0.00 0.00 0.00 81 1023.1
20260504174203 17 344 4.8 11.3 0.00 0.00 0.00 81 1023.2
20260504173631 17 347 3.2 11.3 0.00 0.00 0.00 81 1023.1
20260504173131 17 343 1.6 12.9 0.00 0.00 0.00 81 1023.2
20260504172640 17 29 3.2 12.9 0.00 0.00 0.00 81 1023.2
20260504172128 17 294 3.2 11.3 0.00 0.00 0.00 81 1023.2
20260504171658 17 355 3.2 12.9 0.00 0.00 0.00 81 1023.1
20260504171147 17 341 3.2 12.9 0.00 0.00 0.00 81 1023.0
20260504170654 17 300 3.2 9.7 0.00 0.00 0.00 80 1023.1
20260504170141 17 57 3.2 11.3 0.00 0.00 0.00 80 1023.1
20260504160131 18 51 1.6 6.4 0.00 0.00 0.00 76 1022.8
20260504151134 21 352 3.2 12.9 0.00 0.00 0.00 67 1022.8
20260504150638 21 334 3.2 12.9 0.00 0.00 0.00 67 1022.8
20260504150134 22 262 4.8 12.9 0.00 0.00 0.00 65 1022.8
20260504141139 22 231 6.4 17.7 0.00 0.00 0.00 65 1023.0
20260504140625 22 326 8.0 16.1 0.00 0.00 0.00 63 1023.0
20260504140157 22 283 4.8 14.5 0.00 0.00 0.00 63 1023.1
20260504130632 22 287 4.8 16.1 0.00 0.00 0.00 64 1023.1
20260504130139 23 26 4.8 16.1 0.00 0.00 0.00 64 1023.1
20260504120139 23 334 3.2 12.9 0.00 0.00 0.00 68 1023.6
20260504110627 22 73 8.0 19.3 0.00 0.00 0.00 72 1024.6
20260504110135 22 43 8.0 24.1 0.00 0.00 0.00 73 1024.8
20260504100138 21 334 11.3 22.5 0.00 0.00 0.00 80 1025.9